Home   Weather   Greven   Past weeks

Flag for Germany Past Weather in Greven, North Rhine-Westphalia, Germany — Yesterday and Last 2 Weeks

Now
66 °F

Light rain. Passing clouds.


Feels Like: 66 °F
Forecast: 51 / 62 °F
Wind: 18 mph from Southwest

Location: Muenster / Osnabrueck

Current Time: Sep 29, 2016 at 8:50:17 PM

Latest Report: Sep 29, 2016 at 8:20 PM


Visibility: N/A

Pressure: 29.86 "Hg

Humidity: 68%

Dew Point: 55 °F

Location of GrevenLocation

Past Weather in Greven — Graph

°F

Greven Temperature Yesterday

Maximum temperature yesterday: 72 °F (at 5:20 PM)
Minimum temperature yesterday: 55 °F (at 12:20 AM)
Average temperature yesterday: 64 °F

High & Low Weather Summary for the Past Weeks

 TemperatureHumidityPressure
High84 °F (Sep 15, 1:50 PM)100% (Sep 16, 7:50 AM)30.30 "Hg (Sep 16, 7:50 AM)
Low43 °F (Sep 21, 5:20 AM)30% (Sep 25, 3:20 PM)29.83 "Hg (Sep 15, 3:20 PM)
Average62 °F69%30.09 "Hg
* Reported Sep 14 7:20 PM — Sep 29 7:20 PM, Greven, Weather by CustomWeather, © 2016

Note: Actual official high and low records may vary slightly from our data, if they occured in-between our weather recording intervals... More about our weather records

Advertising

Greven Weather History for the Previous 24 Hours

Scroll right to see more
 ConditionsComfort  
Time TempWeatherWind HumidityBarometerVisibility
7:20 PM
Thu, Sep 29
66 °FPartly cloudy.18 mph64%29.89 "HgN/A
6:50 PM68 °FPartly sunny.18 mph60%29.89 "HgN/A
6:20 PM68 °FPartly sunny.16 mph60%29.89 "HgN/A
5:50 PM68 °FPartly sunny.21 mph60%29.89 "HgN/A
5:20 PM68 °FPartly sunny.13 mph60%29.89 "HgN/A
4:50 PM68 °FPartly sunny.17 mph60%29.89 "HgN/A
4:20 PM68 °FPartly sunny.16 mph60%29.89 "HgN/A
3:50 PM70 °FPartly sunny.20 mph57%29.89 "HgN/A
3:20 PM70 °FPartly sunny.17 mph57%29.92 "HgN/A
2:50 PM68 °FPartly sunny.17 mph60%29.92 "HgN/A
2:20 PM68 °FPartly sunny.17 mph60%29.92 "HgN/A
1:50 PM70 °FPartly sunny.21 mph57%29.92 "HgN/A
1:20 PM70 °FBroken clouds.20 mph57%29.95 "HgN/A
12:50 PM70 °FPartly sunny.23 mph53%29.95 "HgN/A
12:20 PM70 °FBroken clouds.21 mph60%29.95 "HgN/A
11:50 AM68 °FPartly sunny.18 mph60%29.95 "HgN/A
11:20 AM66 °FPartly sunny.17 mph68%29.98 "HgN/A
10:50 AM68 °FPartly sunny.16 mph64%29.98 "HgN/A
10:20 AM66 °FPassing clouds.15 mph68%30.01 "HgN/A
9:50 AM64 °FPassing clouds.13 mph73%30.01 "HgN/A
9:20 AM64 °FSunny.14 mph68%30.01 "Hg10 mi
8:50 AM64 °FPassing clouds.14 mph68%30.01 "HgN/A
8:20 AM63 °FPassing clouds.12 mph73%30.04 "HgN/A
7:50 AM63 °FPassing clouds.13 mph73%30.04 "HgN/A
7:20 AM64 °FClear.14 mph68%30.04 "Hg10 mi
6:50 AM64 °FMostly cloudy.13 mph68%30.04 "HgN/A
6:20 AM64 °FMostly cloudy.12 mph64%30.07 "HgN/A
5:50 AM64 °FMostly cloudy.13 mph64%30.07 "HgN/A
5:20 AM64 °FMostly cloudy.13 mph64%30.07 "HgN/A
4:50 AM64 °FMostly cloudy.13 mph64%30.09 "HgN/A
4:20 AM64 °FMostly cloudy.14 mph64%30.09 "HgN/A
3:50 AM66 °FPassing clouds.13 mph60%30.09 "HgN/A
3:20 AM66 °FPassing clouds.14 mph60%30.09 "HgN/A
2:50 AM66 °FMostly cloudy.14 mph60%30.12 "HgN/A
2:20 AM66 °FPassing clouds.14 mph60%30.12 "HgN/A
1:50 AM66 °FPartly cloudy.10 mph60%30.12 "HgN/A
1:20 AM66 °FPartly cloudy.10 mph60%30.15 "HgN/A
12:50 AM66 °FPartly cloudy.12 mph60%30.15 "HgN/A
12:20 AM68 °FPassing clouds.12 mph56%30.15 "HgN/A
11:50 PM
Wed, Sep 28
66 °FPassing clouds.10 mph56%30.15 "HgN/A
11:20 PM66 °FPartly cloudy.9 mph56%30.15 "HgN/A
10:50 PM66 °FClear.9 mph56%30.18 "Hg10 mi
10:20 PM66 °FPassing clouds.10 mph60%30.15 "HgN/A
9:50 PM68 °FPassing clouds.8 mph56%30.18 "HgN/A
9:20 PM68 °FPartly cloudy.7 mph53%30.18 "HgN/A
8:50 PM68 °FPartly cloudy.8 mph53%30.18 "HgN/A
8:20 PM68 °FClear.10 mph53%30.18 "Hg10 mi
Weather by CustomWeather, © 2016

See weather overviewHow to use our weather pages